EN

Hourly Weather Abay (Maktaaralskiy rayon)

Today, 13 June, Sunday

Time Temperature Precipitation Wind Pressure Humidity
00:00 +28°C° 0 mm 4 mps 732 mmHg 28%
01:00 +26°C° 0 mm 3 mps 732 mmHg 28%
02:00 +25°C° 0 mm 2 mps 732 mmHg 28%
03:00 +25°C° 0 mm 2 mps 732 mmHg 29%
04:00 +24°C° 0 mm 2 mps 732 mmHg 29%
05:00 +23°C° 0 mm 2 mps 733 mmHg 29%
06:00 +25°C° 0 mm 2 mps 733 mmHg 27%
07:00 +27°C° 0 mm 2 mps 733 mmHg 25%
08:00 +29°C° 0 mm 2 mps 734 mmHg 23%
09:00 +30°C° 0 mm 3 mps 734 mmHg 21%
10:00 +33°C° 0 mm 4 mps 734 mmHg 19%
11:00 +35°C° 0 mm 4 mps 734 mmHg 18%
12:00 +36°C° 0 mm 4 mps 733 mmHg 16%
13:00 +36°C° 0 mm 5 mps 733 mmHg 15%
14:00 +37°C° 0 mm 5 mps 733 mmHg 14%
15:00 +37°C° 0 mm 5 mps 732 mmHg 13%
16:00 +37°C° 0 mm 5 mps 732 mmHg 13%
17:00 +38°C° 0 mm 6 mps 732 mmHg 12%
18:00 +35°C° 0 mm 6 mps 732 mmHg 14%
19:00 +33°C° 0 mm 6 mps 732 mmHg 16%
20:00 +30°C° 0 mm 6 mps 732 mmHg 18%
21:00 +29°C° 0 mm 5 mps 732 mmHg 16%
22:00 +28°C° 0 mm 5 mps 732 mmHg 15%
23:00 +26°C° 0 mm 5 mps 732 mmHg 14%

Tomorrow, 14 June, Monday

Time Temperature Precipitation Wind Pressure Humidity
00:00 +25°C° 0 mm 5 mps 732 mmHg 16%
01:00 +22°C° 0 mm 4 mps 732 mmHg 19%
02:00 +21°C° 0 mm 3 mps 732 mmHg 21%
03:00 +20°C° 0 mm 3 mps 732 mmHg 24%
04:00 +19°C° 0 mm 3 mps 732 mmHg 26%
05:00 +18°C° 0 mm 3 mps 732 mmHg 29%
06:00 +20°C° 0 mm 3 mps 732 mmHg 28%
07:00 +22°C° 0 mm 3 mps 733 mmHg 27%
08:00 +24°C° 0 mm 3 mps 733 mmHg 26%
09:00 +26°C° 0 mm 3 mps 733 mmHg 24%
10:00 +28°C° 0 mm 3 mps 732 mmHg 21%
11:00 +30°C° 0 mm 3 mps 732 mmHg 19%
12:00 +31°C° 0 mm 3 mps 732 mmHg 17%
13:00 +34°C° 0 mm 3 mps 731 mmHg 16%
14:00 +35°C° 0 mm 3 mps 731 mmHg 14%
15:00 +35°C° 0 mm 3 mps 731 mmHg 13%
16:00 +36°C° 0 mm 3 mps 730 mmHg 13%
17:00 +36°C° 0 mm 2 mps 730 mmHg 12%
18:00 +34°C° 0 mm 3 mps 730 mmHg 13%
19:00 +32°C° 0 mm 4 mps 730 mmHg 14%
20:00 +29°C° 0 mm 5 mps 730 mmHg 16%
21:00 +28°C° 0 mm 6 mps 730 mmHg 16%
22:00 +27°C° 0 mm 6 mps 731 mmHg 16%
23:00 +26°C° 0 mm 6 mps 731 mmHg 16%

Day after tomorrow, 15 June, Tuesday

Time Temperature Precipitation Wind Pressure Humidity
00:00 +23°C° 0 mm 5 mps 730 mmHg 19%
01:00 +22°C° 0 mm 4 mps 730 mmHg 22%
02:00 +20°C° 0 mm 4 mps 730 mmHg 25%
03:00 +19°C° 0 mm 4 mps 730 mmHg 27%
04:00 +19°C° 0 mm 4 mps 730 mmHg 30%
05:00 +18°C° 0 mm 4 mps 731 mmHg 32%
06:00 +20°C° 0 mm 4 mps 731 mmHg 30%
07:00 +21°C° 0 mm 4 mps 732 mmHg 27%
08:00 +23°C° 0 mm 4 mps 732 mmHg 25%
09:00 +26°C° 0 mm 4 mps 732 mmHg 23%
10:00 +28°C° 0 mm 3 mps 732 mmHg 21%
11:00 +30°C° 0 mm 3 mps 732 mmHg 18%
12:00 +31°C° 0 mm 2 mps 732 mmHg 17%
13:00 +32°C° 0 mm 2 mps 731 mmHg 16%
14:00 +34°C° 0 mm 1 mps 731 mmHg 14%
15:00 +35°C° 0 mm 2 mps 731 mmHg 13%
16:00 +36°C° 0 mm 2 mps 731 mmHg 12%
17:00 +36°C° 0 mm 2 mps 731 mmHg 11%
18:00 +34°C° 0 mm 2 mps 730 mmHg 13%
19:00 +31°C° 0 mm 2 mps 730 mmHg 14%
20:00 +28°C° 0 mm 2 mps 730 mmHg 16%
21:00 +27°C° 0 mm 3 mps 730 mmHg 17%
22:00 +26°C° 0 mm 3 mps 730 mmHg 19%
23:00 +25°C° 0 mm 4 mps 730 mmHg 20%

16 June, Wednesday

Time Temperature Precipitation Wind Pressure Humidity
00:00 +24°C° 0 mm 3 mps 730 mmHg 24%
01:00 +22°C° 0 mm 3 mps 730 mmHg 28%
02:00 +21°C° 0 mm 3 mps 729 mmHg 31%
03:00 +20°C° 0 mm 3 mps 730 mmHg 34%
04:00 +19°C° 0 mm 3 mps 730 mmHg 37%
05:00 +18°C° 0 mm 3 mps 730 mmHg 40%
06:00 +20°C° 0 mm 3 mps 730 mmHg 37%
07:00 +22°C° 0 mm 3 mps 731 mmHg 35%
08:00 +25°C° 0 mm 3 mps 731 mmHg 32%
09:00 +27°C° 0 mm 3 mps 731 mmHg 28%
10:00 +29°C° 0 mm 3 mps 731 mmHg 24%
11:00 +31°C° 0 mm 2 mps 731 mmHg 20%
12:00 +32°C° 0 mm 2 mps 731 mmHg 18%
13:00 +35°C° 0 mm 2 mps 731 mmHg 16%
14:00 +36°C° 0 mm 2 mps 730 mmHg 14%
15:00 +36°C° 0 mm 2 mps 730 mmHg 13%
16:00 +37°C° 0 mm 2 mps 730 mmHg 12%
17:00 +37°C° 0 mm 2 mps 730 mmHg 11%
18:00 +34°C° 0 mm 1 mps 730 mmHg 13%
19:00 +31°C° 0 mm 1 mps 730 mmHg 15%
20:00 +29°C° 0 mm 1 mps 730 mmHg 17%
21:00 +28°C° 0 mm 1 mps 730 mmHg 18%
22:00 +27°C° 0 mm 2 mps 730 mmHg 19%
23:00 +26°C° 0 mm 2 mps 730 mmHg 20%

17 June, Thursday

Time Temperature Precipitation Wind Pressure Humidity
00:00 +25°C° 0 mm 2 mps 730 mmHg 22%
01:00 +24°C° 0 mm 2 mps 730 mmHg 23%
02:00 +23°C° 0 mm 2 mps 730 mmHg 25%
03:00 +23°C° 0 mm 2 mps 731 mmHg 26%
04:00 +21°C° 0 mm 2 mps 731 mmHg 27%
05:00 +20°C° 0 mm 2 mps 731 mmHg 29%
06:00 +23°C° 0 mm 2 mps 731 mmHg 27%
07:00 +25°C° 0 mm 2 mps 732 mmHg 25%
08:00 +28°C° 0 mm 2 mps 732 mmHg 23%
09:00 +30°C° 0 mm 2 mps 732 mmHg 21%
10:00 +32°C° 0 mm 2 mps 732 mmHg 18%
11:00 +35°C° 0 mm 2 mps 732 mmHg 16%
12:00 +36°C° 0 mm 2 mps 732 mmHg 15%
13:00 +37°C° 0 mm 3 mps 731 mmHg 13%
14:00 +38°C° 0 mm 3 mps 731 mmHg 12%
15:00 +39°C° 0 mm 3 mps 731 mmHg 11%
16:00 +39°C° 0 mm 3 mps 731 mmHg 10%
17:00 +39°C° 0 mm 2 mps 730 mmHg 10%
18:00 +36°C° 0 mm 2 mps 730 mmHg 11%
19:00 +34°C° 0 mm 2 mps 730 mmHg 13%
20:00 +31°C° 0 mm 2 mps 730 mmHg 14%
21:00 +30°C° 0 mm 2 mps 730 mmHg 15%
22:00 +28°C° 0 mm 2 mps 730 mmHg 16%
23:00 +27°C° 0 mm 2 mps 731 mmHg 17%

18 June, Friday

Time Temperature Precipitation Wind Pressure Humidity
00:00 +26°C° 0 mm 2 mps 730 mmHg 18%
01:00 +25°C° 0 mm 2 mps 730 mmHg 20%
02:00 +24°C° 0 mm 2 mps 730 mmHg 22%
03:00 +23°C° 0 mm 2 mps 731 mmHg 23%
04:00 +23°C° 0 mm 1 mps 731 mmHg 24%
05:00 +22°C° 0 mm 1 mps 731 mmHg 25%
06:00 +24°C° 0 mm 1 mps 731 mmHg 23%
07:00 +26°C° 0 mm 1 mps 732 mmHg 22%
08:00 +28°C° 0 mm 1 mps 732 mmHg 21%
09:00 +31°C° 0 mm 1 mps 732 mmHg 19%
10:00 +33°C° 0 mm 1 mps 732 mmHg 16%
11:00 +37°C° 0 mm 2 mps 732 mmHg 14%
12:00 +38°C° 0 mm 2 mps 732 mmHg 13%
13:00 +39°C° 0 mm 2 mps 731 mmHg 11%
14:00 +40°C° 0 mm 2 mps 731 mmHg 9%
15:00 +40°C° 0 mm 2 mps 731 mmHg 9%
16:00 +40°C° 0 mm 2 mps 731 mmHg 9%
17:00 +41°C° 0 mm 2 mps 731 mmHg 8%
18:00 +38°C° 0 mm 2 mps 731 mmHg 10%
19:00 +35°C° 0 mm 2 mps 731 mmHg 12%
20:00 +32°C° 0 mm 2 mps 731 mmHg 13%
21:00 +31°C° 0 mm 2 mps 731 mmHg 15%
22:00 +30°C° 0 mm 3 mps 731 mmHg 16%
23:00 +28°C° 0 mm 3 mps 731 mmHg 17%
Show more